Wind_Speed
8 5 16 18 15 12 9 8 8 8 7 5 4 3 5 6 7 7 6 6 7 8 9 9 10 11 11 12 13 15 15 15
8 9 16 19 17 14 10 10 10 11 10 8 7 8 9 10 10 11 11 11 10 9 10 12 14 15 15 16 15 15 15 14
7 12 13 21 21 18 15 13 12 14 14 12 11 11 11 12 13 15 16 16 17 17 16 14 15 17 19 20 20 20 20 17
8 10 15 20 23 23 21 18 16 17 17 17 17 15 15 15 16 17 17 18 19 21 21 21 20 20 21 22 24 24 25 24
13 12 14 17 25 26 26 24 22 20 21 21 21 21 20 20 21 22 22 22 23 23 25 26 25 25 24 25 26 26 26 26
13 15 15 16 22 28 28 27 27 25 25 24 25 26 26 27 27 27 28 28 28 27 28 28 28 28 28 28 28 28 28 27
13 13 16 16 17 26 28 29 29 28 27 28 29 29 30 31 33 34 34 33 31 29 28 28 28 30 31 31 31 30 30 29
18 14 15 14 15 20 24 27 29 30 30 30 32 33 35 33 32 32 31 30 28 25 24 25 27 28 30 30 29 30 30 27
19 19 16 15 15 16 19 22 26 27 29 31 31 32 31 29 26 24 25 25 24 24 24 24 26 28 29 30 30 30 31 29
17 17 16 18 20 20 19 20 19 20 24 26 28 29 28 27 26 27 25 24 25 27 28 26 25 27 28 29 28 28 29 30
17 17 13 14 18 26 25 23 21 20 24 26 27 29 29 25 24 24 26 25 25 26 27 28 27 28 28 28 27 27 28 29
12 16 17 14 19 24 27 26 27 25 25 26 26 26 25 26 26 25 25 23 24 24 23 25 25 27 29 27 27 28 27 28
19 15 18 19 20 22 24 27 27 27 27 28 24 23 22 22 23 25 25 25 24 23 24 24 24 27 30 29 30 29 28 28
21 16 14 17 20 21 26 28 28 29 29 27 26 25 24 24 24 24 26 26 24 26 28 28 28 31 34 37 35 34 33 36
23 20 15 16 18 22 26 27 27 29 29 31 32 28 26 26 27 26 26 27 29 31 33 35 37 39 39 46 47 42 40 41
27 24 19 16 17 19 23 26 29 29 28 28 26 26 26 27 28 28 29 29 32 36 38 44 44 45 46 41 47 47 48 48
30 28 25 20 18 19 23 24 26 28 30 25 25 26 27 27 30 30 31 31 33 40 41 44 46 47 48 49 49 52 55 58
32 29 29 27 27 25 25 24 27 28 28 27 28 27 29 29 30 33 36 39 41 43 46 48 50 54 55 57 57 59 60 57
32 31 32 31 30 30 29 29 28 29 28 30 32 32 32 33 35 39 42 45 46 49 52 54 56 59 62 64 65 68 69 70
32 33 34 36 34 33 32 34 34 32 33 35 35 37 36 36 38 42 46 49 53 56 57 59 63 66 68 69 69 70 72 67
Wind_Direction
228 220 211 211 212 213 217 230 230 217 212 220 231 294 317 322 321 328 325 321 314 302 292 288 291 292 287 283 287 296 300 300
219 234 206 212 218 222 228 232 225 214 223 228 253 281 301 309 312 313 314 312 304 295 289 283 281 284 286 287 288 291 297 302
232 223 230 213 214 226 231 236 234 228 228 235 253 269 281 293 297 301 300 301 303 302 299 292 286 283 283 286 290 292 293 294
281 237 229 225 222 221 224 233 238 240 244 248 253 261 267 273 278 286 288 287 286 289 291 292 294 291 287 284 283 285 289 293
316 265 242 236 227 227 231 234 237 241 252 258 266 270 272 274 278 281 284 283 285 284 282 282 283 285 287 287 285 284 283 283
310 308 279 253 235 230 232 238 242 247 248 256 265 272 278 281 283 285 286 287 285 283 279 278 279 282 284 283 283 282 282 281
297 300 297 285 263 240 237 243 247 250 255 260 265 269 275 281 285 287 287 287 286 285 284 282 281 283 285 286 287 287 285 284
288 282 284 284 275 269 256 256 258 260 263 264 268 274 279 279 282 288 289 288 288 287 286 286 284 283 284 283 282 284 287 288
267 273 276 268 272 269 270 268 268 270 272 271 273 277 281 285 288 287 288 290 290 291 288 287 288 287 285 285 285 284 284 285
276 263 259 272 277 266 257 261 265 273 278 280 283 283 285 286 283 283 280 280 284 286 287 286 285 287 287 286 287 286 286 285
278 278 264 258 265 271 270 265 265 273 278 282 284 287 291 290 285 279 279 276 274 276 275 279 283 281 277 279 282 282 282 283
281 285 279 264 257 264 272 278 280 278 275 276 276 281 285 288 287 285 283 283 286 283 277 273 270 272 274 274 274 274 276 282
284 288 287 278 272 268 271 276 280 283 283 283 281 278 279 282 282 285 283 277 275 280 281 278 277 277 278 277 277 277 280 285
284 283 278 275 275 274 275 277 281 285 286 281 278 280 282 279 276 278 287 290 283 279 275 274 273 276 279 279 280 279 287 284
276 280 278 276 271 268 270 274 273 274 274 275 278 280 280 282 279 277 280 285 289 286 287 282 279 280 278 286 286 286 283 283
274 276 274 268 270 271 274 273 274 274 269 271 275 278 280 282 282 279 280 285 292 293 290 288 284 288 290 285 290 294 292 290
268 269 267 265 266 269 270 276 276 271 271 271 273 278 280 279 281 285 289 291 292 292 300 301 302 300 300 299 295 294 295 294
263 263 263 260 261 262 265 267 275 282 278 279 276 277 278 280 284 292 295 296 297 296 297 297 298 298 299 299 298 295 298 297
267 264 266 264 261 263 265 268 271 267 269 269 269 272 276 286 292 294 294 295 295 295 296 297 296 294 296 298 300 302 303 303
273 269 268 268 265 264 264 270 269 271 270 267 269 273 278 282 289 292 296 297 297 296 295 296 295 295 295 295 295 296 297 299
Height
5873 5874 5879 5880 5882 5883 5883 5884 5884 5885 5886 5886 5886 5885 5885 5884 5883 5882 5881 5879 5878 5877 5876 5875 5874 5874 5873 5873 5872 5872 5871 5870
5872 5874 5873 5879 5882 5883 5884 5884 5883 5884 5884 5884 5884 5884 5883 5882 5881 5880 5878 5877 5876 5875 5874 5873 5872 5871 5870 5869 5868 5868 5868 5867
5872 5872 5874 5874 5877 5881 5882 5882 5882 5882 5881 5881 5881 5880 5880 5879 5879 5877 5876 5875 5874 5872 5871 5870 5869 5868 5867 5866 5865 5864 5863 5863
5872 5871 5871 5872 5874 5875 5876 5879 5880 5880 5880 5879 5877 5876 5876 5875 5875 5874 5873 5872 5870 5869 5867 5866 5865 5864 5863 5861 5860 5859 5858 5858
5871 5871 5869 5870 5870 5871 5873 5874 5874 5876 5877 5877 5877 5875 5874 5872 5871 5869 5868 5867 5865 5864 5863 5862 5860 5859 5858 5856 5855 5854 5853 5852
5870 5870 5869 5868 5867 5869 5869 5870 5870 5871 5870 5871 5872 5872 5871 5869 5868 5866 5864 5862 5860 5858 5857 5855 5855 5854 5852 5851 5849 5847 5847 5846
5866 5867 5867 5867 5866 5865 5866 5867 5867 5867 5867 5867 5866 5865 5865 5865 5863 5862 5859 5857 5855 5853 5851 5850 5849 5847 5846 5845 5843 5842 5840 5840
5862 5862 5863 5863 5864 5863 5864 5864 5864 5863 5863 5862 5861 5861 5860 5858 5856 5854 5853 5851 5849 5847 5845 5844 5842 5841 5839 5838 5837 5834 5832 5832
5861 5858 5857 5857 5859 5859 5858 5859 5859 5859 5858 5857 5855 5853 5852 5852 5850 5848 5846 5846 5844 5842 5840 5838 5836 5834 5833 5831 5830 5828 5827 5825
5856 5855 5853 5851 5851 5852 5854 5852 5853 5853 5852 5851 5849 5847 5846 5846 5843 5841 5840 5840 5839 5836 5834 5832 5830 5828 5826 5824 5822 5820 5818 5817
5850 5850 5848 5847 5846 5844 5844 5846 5847 5846 5844 5844 5842 5840 5837 5837 5837 5834 5832 5831 5830 5829 5828 5826 5825 5821 5819 5818 5818 5817 5814 5812
5845 5845 5844 5842 5840 5839 5838 5838 5838 5838 5838 5837 5836 5835 5833 5831 5829 5828 5825 5823 5822 5820 5819 5818 5817 5815 5813 5813 5809 5808 5807 5805
5838 5840 5838 5836 5836 5834 5833 5832 5832 5832 5831 5831 5830 5829 5828 5827 5824 5821 5819 5818 5816 5813 5811 5809 5808 5805 5802 5801 5800 5798 5798 5797
5830 5831 5833 5831 5830 5829 5828 5827 5825 5824 5824 5822 5821 5821 5820 5819 5818 5815 5813 5810 5809 5806 5804 5801 5800 5797 5793 5789 5790 5791 5790 5786
5826 5826 5826 5825 5824 5823 5823 5821 5820 5818 5817 5816 5815 5814 5813 5811 5810 5809 5807 5804 5801 5799 5797 5794 5789 5789 5783 5777 5775 5776 5776 5775
5820 5819 5819 5818 5817 5816 5815 5814 5813 5811 5810 5809 5808 5807 5805 5804 5803 5801 5800 5798 5796 5792 5789 5785 5780 5777 5771 5770 5766 5762 5758 5756
5813 5813 5812 5813 5811 5811 5808 5807 5806 5804 5804 5802 5801 5800 5799 5797 5795 5793 5792 5791 5789 5785 5780 5777 5771 5766 5763 5759 5757 5750 5748 5740
5805 5806 5805 5806 5806 5804 5803 5801 5800 5800 5797 5795 5794 5794 5792 5791 5788 5786 5784 5781 5779 5777 5772 5768 5763 5756 5753 5749 5743 5736 5732 5726
5796 5798 5797 5797 5797 5796 5795 5794 5793 5792 5791 5790 5789 5787 5786 5783 5780 5778 5774 5771 5768 5765 5761 5757 5752 5746 5741 5735 5729 5724 5719 5712
5787 5788 5789 5787 5787 5787 5786 5785 5785 5784 5783 5782 5781 5780 5778 5775 5772 5768 5764 5760 5756 5752 5749 5744 5737 5732 5727 5723 5717 5713 5708 5701